Temp
12 13 13 13 13 13 12 13 13 13 12 11 11 12 13 13 13 12 11 11 10 10 10 10 10 9 9 9 9 9 9 9 9 9 9 9 9 9 9 8 8 8 8 8 8 8 8 7 7
13 13 13 13 13 13 12 12 12 13 13 13 13 13 13 13 12 12 12 11 10 10 10 10 10 9 9 9 9 9 9 9 9 9 9 9 9 9 9 8 8 8 9 8 8 8 8 8 8
13 13 13 13 13 13 13 13 12 12 13 13 13 12 13 13 12 12 11 11 10 10 10 10 10 9 9 9 9 9 9 9 9 9 9 9 9 9 9 9 8 8 8 9 8 8 8 8 8
12 13 13 13 13 12 13 13 13 12 12 13 13 13 12 11 12 12 11 10 10 10 10 10 10 10 10 9 9 9 9 9 9 9 9 9 9 9 9 9 9 9 8 8 8 8 8 8 8
12 12 13 13 13 12 12 12 13 13 13 13 12 13 12 11 11 12 11 10 10 10 10 10 10 10 10 10 10 9 9 9 9 9 9 9 9 9 9 9 9 9 9 8 8 8 8 8 8
13 13 13 14 13 14 13 13 13 13 13 13 13 13 12 10 11 11 11 10 10 10 10 10 10 10 10 10 10 10 10 9 9 9 9 9 9 9 9 9 9 9 9 9 9 8 8 8 8
15 14 13 13 13 13 14 12 13 13 13 12 12 13 12 10 11 11 10 9 10 10 10 10 10 10 10 10 10 10 10 10 10 9 9 9 9 9 9 9 9 9 9 9 9 9 8 8 8
15 14 14 13 14 14 13 13 13 13 12 12 11 12 12 11 11 10 10 10 10 10 10 10 10 10 10 10 10 10 10 10 10 9 9 9 9 9 9 9 8 8 8 8 8 8 8 8 8
14 15 14 14 14 14 13 14 13 13 13 12 12 12 12 11 10 9 9 9 9 10 10 10 10 10 10 10 10 10 10 10 9 9 9 9 8 8 8 8 8 8 8 8 8 8 8 8 8
14 15 15 15 14 14 14 14 13 13 13 13 13 10 11 9 9 9 9 9 9 10 10 10 10 10 10 10 10 10 10 9 9 9 8 8 8 8 8 8 8 8 8 8 7 8 8 8 8
15 15 15 15 14 15 14 14 14 14 13 13 13 11 10 10 9 9 9 10 10 10 10 10 10 10 10 10 10 10 10 9 9 9 9 9 8 8 8 8 8 8 8 8 7 7 7 7 7
16 15 15 16 14 15 15 15 14 14 13 12 12 12 10 10 10 10 10 10 11 10 9 10 10 10 10 10 10 10 9 8 9 9 9 9 9 8 8 8 8 8 8 8 8 8 7 7 7
16 16 16 16 15 15 15 14 14 14 13 12 12 11 10 9 9 9 10 10 11 11 11 11 11 10 10 10 10 9 9 9 8 9 9 9 9 9 8 8 8 8 8 8 8 8 8 7 8
16 15 16 16 16 15 15 14 14 13 13 12 12 11 10 9 9 10 10 10 10 10 11 10 11 11 10 10 10 9 9 10 9 9 9 9 9 9 8 8 8 8 8 8 8 8 8 9 8
16 16 17 16 15 15 15 14 13 13 12 12 12 11 10 9 10 10 10 10 10 10 10 10 10 10 10 10 10 10 10 10 10 10 9 9 9 9 8 8 8 8 8 8 8 8 8 8 8
16 16 16 16 16 15 15 13 13 11 12 13 12 11 10 10 10 10 10 10 10 10 10 10 10 10 10 9 10 10 10 10 10 10 10 9 9 9 9 8 8 8 8 8 8 8 8 8 8
16 16 16 16 16 16 16 14 13 12 12 13 12 13 12 10 10 10 10 10 10 10 10 10 10 9 10 10 10 10 10 10 10 11 10 9 9 9 8 8 8 8 8 8 8 8 9 9 9
16 17 16 16 16 15 15 15 15 14 13 12 13 12 12 11 11 11 10 10 10 10 10 10 10 10 9 10 10 10 10 10 10 10 10 10 10 9 9 9 9 9 8 8 8 9 9 9 9
17 17 17 16 15 12 14 15 14 15 14 13 12 13 13 12 11 11 11 11 10 10 10 10 10 10 10 10 11 10 10 10 10 10 10 10 10 10 9 9 8 8 8 9 9 9 8 8 9
17 18 17 15 15 13 14 14 15 15 17 14 13 13 13 13 13 12 11 11 11 10 10 11 10 11 11 11 11 11 11 10 10 10 10 10 10 9 9 8 8 8 8 8 9 9 8 8 9
18 18 18 16 15 15 14 14 15 15 14 14 13 13 13 13 14 14 13 12 12 11 11 11 11 11 11 12 12 11 11 10 10 10 10 10 10 10 9 9 9 8 8 9 9 9 9 9 9
18 19 18 18 16 15 14 15 15 15 14 14 13 13 13 13 14 13 13 13 13 13 12 12 11 11 11 12 12 11 11 11 11 10 10 10 10 10 9 9 10 9 9 9 9 9 9 9 9
19 19 18 18 18 17 16 16 15 14 15 14 15 15 13 13 13 14 15 14 14 14 13 12 12 12 12 12 12 12 11 10 10 10 10 10 10 10 9 9 9 9 9 9 9 9 9 9 9
18 19 18 18 17 15 16 15 18 16 17 16 15 14 15 15 14 13 14 14 14 14 14 13 12 12 12 12 12 12 12 11 10 10 10 10 10 10 9 9 9 9 9 9 9 9 9 9 9
19 19 18 15 13 12 15 14 17 17 17 17 16 15 15 16 15 15 14 14 15 15 14 13 13 12 12 12 12 12 12 11 11 10 10 10 10 10 10 9 10 10 10 10 10 9 9 9 9
19 19 18 14 11 11 13 14 17 17 18 17 16 17 17 16 16 16 15 15 15 15 14 14 13 13 12 12 12 12 12 11 11 10 10 11 10 10 10 10 10 10 10 10 10 9 9 9 9
19 18 19 18 15 13 14 16 17 17 18 18 17 17 17 16 16 16 15 15 15 15 14 14 14 13 12 12 12 12 11 11 11 10 11 11 11 10 10 10 10 10 9 9 9 9 9 9 9
19 19 19 18 15 14 13 14 17 17 17 17 17 16 16 16 16 16 16 15 14 14 14 14 13 13 12 12 12 12 12 11 11 11 12 11 11 10 10 9 9 9 9 9 9 9 9 9 9
19 19 19 19 18 12 11 16 18 18 17 17 17 16 16 16 17 16 16 15 15 14 14 14 13 13 13 12 12 12 12 12 11 12 12 11 11 10 9 9 9 9 9 9 9 9 9 9 8
18 19 19 19 18 18 17 18 19 18 18 18 18 18 17 17 16 16 16 16 15 14 14 14 13 13 13 12 12 12 13 12 12 12 11 11 10 9 9 9 9 8 8 8 8 8 9 8 8
Height
3165 3164 3165 3160 3165 3161 3161 3162 3161 3160 3161 3161 3163 3162 3161 3160 3160 3164 3162 3163 3164 3167 3168 3169 3171 3173 3174 3175 3176 3178 3179 3179 3180 3181 3183 3185 3185 3186 3187 3188 3188 3190 3191 3192 3192 3192 3192 3193 3193
3166 3164 3163 3163 3164 3163 3164 3163 3164 3163 3161 3163 3163 3163 3161 3160 3159 3160 3161 3164 3167 3169 3170 3171 3172 3175 3176 3177 3178 3180 3180 3180 3181 3183 3184 3186 3187 3187 3189 3189 3189 3191 3192 3193 3193 3193 3193 3194 3194
3166 3166 3166 3164 3165 3166 3165 3165 3164 3166 3165 3165 3164 3163 3162 3160 3160 3162 3165 3165 3169 3170 3171 3173 3174 3176 3177 3178 3179 3180 3181 3182 3183 3185 3186 3187 3187 3189 3190 3190 3191 3192 3193 3194 3194 3194 3195 3194 3195
3171 3171 3169 3168 3167 3168 3167 3166 3164 3165 3166 3166 3164 3164 3164 3164 3165 3165 3166 3168 3170 3171 3173 3175 3176 3177 3178 3179 3180 3181 3182 3184 3185 3186 3187 3187 3189 3190 3190 3190 3191 3193 3194 3195 3196 3196 3196 3195 3196
3171 3173 3172 3170 3170 3170 3169 3168 3167 3167 3167 3166 3166 3165 3165 3166 3167 3168 3169 3170 3172 3173 3175 3176 3177 3179 3180 3181 3181 3182 3184 3185 3187 3187 3188 3189 3190 3190 3190 3191 3192 3194 3194 3195 3196 3197 3197 3196 3195
3174 3174 3175 3171 3173 3171 3170 3169 3167 3169 3167 3167 3167 3166 3167 3169 3169 3170 3172 3173 3176 3177 3177 3178 3179 3180 3181 3182 3183 3185 3186 3186 3187 3188 3189 3190 3190 3190 3191 3192 3193 3194 3195 3195 3196 3196 3197 3197 3196
3176 3174 3175 3175 3175 3173 3172 3171 3171 3170 3169 3168 3167 3166 3167 3169 3173 3173 3173 3176 3178 3179 3179 3180 3181 3182 3183 3184 3185 3187 3188 3188 3188 3188 3189 3189 3190 3190 3191 3192 3193 3194 3195 3195 3196 3196 3197 3197 3197
3175 3175 3175 3176 3174 3174 3173 3171 3168 3171 3169 3169 3169 3169 3167 3167 3172 3174 3176 3178 3179 3179 3181 3182 3183 3184 3185 3186 3187 3189 3189 3190 3190 3190 3190 3191 3190 3190 3190 3191 3192 3193 3194 3194 3195 3195 3195 3196 3196
3176 3178 3176 3175 3174 3173 3174 3172 3170 3170 3170 3169 3169 3168 3168 3167 3171 3173 3176 3177 3179 3180 3182 3183 3185 3186 3187 3188 3188 3189 3190 3191 3192 3192 3192 3191 3191 3190 3190 3190 3191 3192 3193 3193 3193 3193 3193 3194 3194
3177 3177 3176 3175 3174 3173 3173 3173 3172 3171 3170 3171 3171 3170 3169 3169 3171 3174 3176 3178 3180 3181 3183 3184 3186 3187 3188 3188 3189 3190 3190 3191 3191 3191 3191 3191 3191 3190 3189 3189 3190 3191 3191 3191 3191 3191 3191 3191 3192
3180 3179 3178 3175 3174 3173 3174 3174 3173 3173 3172 3172 3172 3168 3169 3172 3173 3176 3178 3181 3182 3183 3184 3185 3187 3188 3188 3188 3190 3191 3190 3191 3192 3192 3192 3191 3191 3190 3190 3189 3190 3190 3189 3189 3189 3189 3188 3189 3189
3181 3179 3177 3177 3175 3175 3175 3175 3174 3172 3173 3172 3171 3170 3169 3171 3173 3177 3179 3181 3183 3185 3185 3185 3187 3188 3188 3188 3189 3190 3189 3189 3191 3191 3192 3192 3191 3191 3190 3189 3189 3189 3188 3188 3187 3186 3186 3187 3187
3179 3176 3176 3176 3175 3175 3175 3175 3174 3173 3172 3173 3172 3172 3173 3172 3174 3177 3179 3180 3182 3185 3186 3187 3187 3188 3189 3189 3189 3189 3189 3189 3190 3191 3192 3192 3192 3190 3190 3189 3188 3188 3188 3187 3186 3185 3184 3184 3183
3177 3176 3175 3176 3176 3176 3176 3175 3174 3173 3172 3171 3172 3173 3175 3176 3177 3177 3179 3180 3181 3184 3186 3186 3186 3187 3188 3188 3188 3189 3190 3191 3191 3191 3192 3191 3191 3190 3190 3188 3187 3185 3185 3185 3185 3184 3183 3182 3181
3177 3176 3176 3177 3176 3176 3174 3174 3176 3174 3173 3173 3173 3172 3175 3177 3178 3179 3180 3181 3182 3184 3185 3186 3186 3186 3186 3186 3188 3188 3189 3190 3191 3190 3190 3191 3190 3190 3189 3188 3187 3184 3182 3183 3183 3181 3182 3182 3180
3177 3177 3177 3177 3176 3177 3176 3178 3179 3179 3177 3175 3175 3174 3175 3177 3179 3181 3181 3182 3183 3184 3185 3187 3186 3186 3185 3186 3187 3188 3188 3189 3190 3190 3190 3190 3189 3189 3187 3186 3184 3182 3181 3181 3181 3180 3180 3180 3180
3176 3176 3176 3176 3175 3175 3176 3177 3177 3178 3177 3177 3175 3174 3174 3176 3178 3180 3181 3183 3183 3184 3185 3186 3188 3186 3188 3189 3190 3190 3189 3190 3190 3190 3190 3188 3187 3187 3185 3183 3181 3180 3179 3178 3179 3179 3179 3178 3177
3174 3176 3175 3175 3177 3175 3174 3175 3174 3175 3175 3176 3175 3174 3174 3174 3175 3179 3181 3182 3184 3184 3185 3187 3188 3189 3190 3190 3190 3190 3190 3190 3190 3189 3188 3186 3186 3183 3183 3178 3179 3179 3178 3177 3176 3177 3177 3177 3176
3173 3176 3172 3176 3176 3173 3175 3175 3172 3174 3173 3172 3174 3174 3174 3175 3176 3178 3181 3182 3183 3183 3185 3187 3189 3189 3190 3190 3190 3190 3189 3189 3189 3188 3187 3184 3183 3181 3177 3176 3176 3175 3176 3175 3174 3175 3175 3173 3174
3172 3173 3172 3170 3166 3177 3176 3172 3172 3169 3165 3168 3170 3172 3173 3175 3175 3176 3179 3180 3181 3182 3184 3186 3187 3188 3189 3189 3189 3189 3189 3188 3188 3187 3186 3182 3180 3179 3176 3171 3167 3165 3171 3174 3172 3172 3173 3171 3174
3168 3170 3169 3169 3169 3168 3166 3169 3166 3165 3164 3166 3167 3169 3171 3174 3175 3176 3177 3178 3180 3181 3182 3184 3186 3187 3188 3188 3188 3188 3188 3187 3187 3186 3184 3182 3180 3176 3174 3167 3160 3160 3168 3171 3171 3172 3172 3171 3169
3164 3166 3166 3166 3166 3164 3163 3157 3155 3160 3165 3164 3165 3166 3169 3172 3173 3175 3176 3177 3178 3180 3181 3182 3184 3186 3187 3187 3187 3187 3187 3187 3185 3184 3183 3181 3179 3175 3173 3170 3165 3164 3168 3169 3170 3169 3169 3168 3168
3165 3162 3164 3163 3162 3161 3160 3157 3155 3159 3161 3158 3159 3162 3164 3167 3169 3172 3174 3175 3177 3179 3180 3181 3183 3185 3186 3186 3186 3186 3186 3185 3185 3183 3181 3179 3179 3176 3174 3171 3170 3169 3169 3169 3168 3167 3167 3166 3164
3162 3160 3161 3160 3159 3161 3158 3158 3152 3152 3155 3156 3157 3158 3160 3162 3163 3167 3171 3173 3175 3177 3178 3179 3181 3184 3185 3185 3185 3185 3185 3184 3184 3182 3180 3179 3178 3175 3173 3171 3169 3168 3167 3166 3165 3164 3164 3163 3162
3157 3158 3159 3160 3160 3162 3157 3156 3151 3147 3150 3151 3154 3155 3158 3158 3160 3163 3166 3168 3172 3174 3176 3178 3179 3182 3183 3184 3183 3183 3183 3182 3180 3179 3178 3176 3174 3173 3171 3170 3168 3167 3165 3164 3164 3163 3162 3160 3159
3154 3155 3157 3161 3163 3161 3158 3154 3148 3147 3148 3147 3147 3152 3154 3154 3159 3161 3161 3163 3168 3171 3173 3175 3177 3179 3181 3181 3182 3181 3180 3180 3178 3177 3176 3174 3173 3170 3169 3168 3166 3165 3164 3162 3161 3159 3158 3156 3154
3149 3151 3154 3154 3155 3157 3155 3151 3148 3149 3149 3150 3152 3151 3154 3154 3155 3157 3157 3158 3165 3168 3170 3172 3173 3176 3178 3179 3180 3179 3178 3178 3176 3175 3174 3173 3172 3170 3168 3167 3164 3164 3162 3161 3159 3157 3155 3153 3151
3142 3148 3150 3150 3154 3155 3155 3152 3147 3147 3147 3150 3152 3153 3151 3152 3153 3154 3153 3155 3159 3165 3168 3170 3171 3173 3175 3176 3177 3177 3176 3175 3173 3173 3172 3171 3169 3168 3166 3164 3162 3161 3160 3158 3157 3154 3152 3150 3148
3143 3143 3145 3146 3147 3149 3156 3149 3144 3145 3145 3146 3149 3150 3151 3149 3151 3151 3150 3153 3159 3162 3164 3166 3167 3170 3172 3174 3174 3174 3173 3172 3171 3170 3169 3167 3167 3167 3166 3164 3162 3159 3157 3154 3152 3150 3148 3146 3144
3140 3141 3141 3141 3143 3142 3142 3143 3142 3144 3143 3144 3146 3146 3147 3147 3146 3146 3148 3154 3158 3160 3161 3163 3165 3167 3170 3171 3171 3171 3170 3170 3169 3168 3167 3166 3166 3165 3164 3162 3160 3158 3155 3152 3149 3147 3145 3144 3141
Wind_Speed
11 9 6 4 6 9 12 10 10 11 14 12 15 7 4 8 11 5 22 20 21 18 18 19 18 17 16 14 14 13 13 13 14 13 13 14 15 15 15 15 16 15 14 13 14 14 13 12 12
9 14 7 6 6 9 11 6 2 14 10 5 3 2 4 9 12 21 24 22 20 18 17 17 17 16 15 14 13 13 14 14 13 12 11 11 11 12 13 14 14 14 14 13 13 14 13 13 12
10 8 15 11 7 8 10 9 15 7 13 8 3 5 9 14 19 21 22 23 20 18 16 15 16 15 14 14 13 13 14 14 13 13 13 13 12 12 12 13 12 11 12 13 12 12 12 10 11
11 17 10 10 10 10 11 9 12 13 10 6 1 10 13 13 15 19 23 22 19 17 16 15 14 14 14 13 13 13 14 13 13 13 13 13 12 11 11 11 11 10 9 9 10 11 10 8 7
13 8 11 9 13 14 8 12 9 5 7 11 3 6 14 22 18 20 20 18 15 16 16 14 14 14 14 13 13 13 13 13 12 12 12 12 11 11 11 10 9 8 8 8 8 8 8 7 4
21 11 6 8 11 15 12 7 4 4 6 8 6 6 18 19 18 23 19 17 12 11 14 13 14 14 13 13 12 13 13 12 11 11 10 9 8 8 8 8 7 7 7 6 7 7 6 5 4
17 10 5 7 7 12 15 8 7 7 6 5 5 6 14 17 27 18 16 13 12 12 11 13 12 12 12 12 12 11 11 10 10 9 8 7 6 5 4 5 5 5 4 4 5 6 6 6 5
18 6 4 7 6 6 6 15 5 5 8 5 5 4 12 17 18 16 11 8 7 9 8 10 11 11 11 10 10 10 9 9 7 6 5 4 3 2 2 3 4 4 5 5 6 7 7 7 7
10 14 7 4 5 8 12 9 13 5 4 2 5 2 14 17 12 11 11 8 5 4 9 9 10 9 8 8 9 8 8 7 5 4 4 2 1 1 4 5 4 6 7 8 9 9 9 9 9
10 14 9 3 3 8 7 4 6 5 3 2 4 18 17 21 15 14 12 7 5 9 11 11 10 9 9 6 6 6 6 6 7 5 3 2 2 1 4 5 5 6 7 9 11 11 11 12 11
15 11 7 8 11 6 3 4 4 8 7 4 2 21 26 26 21 17 14 9 7 10 12 12 9 8 8 7 5 3 3 2 3 2 1 3 2 2 3 1 2 3 7 8 10 10 11 16 13
13 4 3 1 5 5 5 3 5 3 2 1 1 10 24 26 22 20 13 11 14 13 12 12 9 7 5 5 4 1 4 4 6 1 2 0 2 2 3 2 3 4 5 6 8 7 8 7 12
8 3 5 2 3 1 2 5 3 0 3 3 3 10 25 25 20 12 6 7 4 3 6 7 5 5 3 5 4 5 3 4 7 3 1 0 2 5 5 4 5 6 6 4 4 3 5 6 10
9 6 3 6 6 2 5 8 4 1 2 3 7 12 21 29 24 15 9 7 2 2 3 4 2 3 3 3 4 4 3 5 4 2 1 2 4 5 5 6 7 10 9 7 7 5 5 4 4
8 7 3 6 5 5 6 6 3 4 1 7 3 10 14 25 22 17 9 11 3 5 5 6 1 2 2 2 1 2 4 4 3 3 1 1 1 2 5 9 9 10 6 7 8 9 10 7 6
17 11 6 1 5 10 9 16 8 12 5 12 0 10 13 17 19 16 10 12 10 10 8 6 3 3 3 3 4 5 4 7 6 5 3 3 4 4 6 8 12 12 8 6 6 6 7 5 6
9 17 22 6 2 11 11 12 11 11 12 15 6 2 9 16 15 20 15 13 15 13 9 8 3 4 4 2 0 2 4 4 4 9 8 6 8 10 10 10 11 8 7 4 5 8 6 4 4
14 7 6 6 8 10 11 7 5 14 16 18 15 10 5 14 19 18 22 16 17 15 14 9 3 3 8 4 4 3 4 5 5 9 11 11 12 14 14 13 12 11 7 8 5 3 2 1 1
18 12 5 8 4 9 5 8 7 11 15 22 23 18 13 7 18 18 20 19 19 17 17 13 6 4 5 5 6 4 3 7 10 13 15 13 15 17 18 21 19 14 13 11 7 5 5 4 1
17 10 10 9 8 8 16 8 10 11 6 21 26 24 18 10 8 11 21 21 21 19 15 11 3 3 3 6 5 4 2 5 9 11 14 15 18 18 22 23 25 21 12 9 5 4 5 3 5
23 18 7 9 10 7 1 11 13 11 13 15 27 29 22 17 6 2 5 13 10 12 9 5 2 5 2 5 5 1 2 5 8 11 13 14 16 17 18 20 12 4 11 5 3 3 1 2 7
23 12 2 6 9 8 4 7 20 10 12 19 19 25 29 20 10 6 5 5 5 9 8 4 1 2 3 4 4 1 4 7 11 14 13 15 15 13 13 15 13 17 9 4 6 6 6 8 12
19 11 3 6 4 3 5 9 8 6 9 10 24 16 19 21 23 12 1 3 1 6 8 7 3 2 3 5 4 4 5 10 12 11 15 17 15 8 10 8 6 3 3 6 7 8 10 11 13
14 14 8 5 4 2 6 6 4 6 14 3 19 19 19 19 21 22 6 5 5 5 7 6 3 2 3 5 6 6 8 12 12 14 17 17 14 8 7 7 6 4 4 5 6 9 11 13 11
12 11 4 4 3 4 7 7 5 16 7 4 19 25 23 24 23 17 13 13 6 5 3 5 3 1 2 6 6 7 10 13 16 18 18 18 14 9 5 6 5 4 4 5 5 6 8 10 11
13 15 6 5 3 2 6 7 9 6 4 4 3 16 17 29 24 21 16 10 10 6 5 2 2 2 5 6 7 9 13 14 17 18 17 15 12 8 6 7 6 6 6 6 7 8 9 10 11
28 25 18 12 3 6 7 10 14 6 9 4 7 14 16 16 12 18 14 10 12 11 9 6 5 5 9 10 10 12 16 17 17 18 15 13 10 6 5 6 7 8 8 8 8 8 10 11 12
17 8 10 8 2 3 4 9 11 11 13 10 9 8 10 8 11 13 14 12 11 15 9 10 8 7 12 13 13 15 18 18 17 14 12 8 6 4 6 8 10 11 11 11 10 12 11 10 11
19 23 17 12 6 7 4 6 8 2 1 4 13 12 14 13 13 12 8 9 13 16 14 12 13 12 15 13 14 16 16 14 12 9 6 4 4 5 7 9 12 15 17 17 16 15 15 12 11
13 16 24 18 8 5 7 10 7 10 11 7 13 12 11 15 11 11 11 13 18 20 18 16 17 17 13 13 15 14 14 11 7 3 3 3 4 6 9 13 15 16 18 18 19 17 15 13 13
Wind_Direction
48 4 338 102 39 81 76 101 111 87 94 122 120 145 179 155 154 161 151 141 139 142 140 137 138 137 136 132 122 121 117 112 110 110 110 110 115 122 126 127 121 123 119 117 115 118 127 135 128
354 326 330 187 106 92 67 82 358 112 82 78 105 112 238 201 191 154 148 142 143 144 141 141 141 141 137 129 123 122 119 118 115 115 122 120 116 126 132 128 126 122 121 120 121 114 116 125 130
35 51 127 87 87 67 94 104 114 119 82 50 45 128 106 127 140 148 147 141 145 143 141 143 141 137 130 128 127 125 126 127 123 121 120 121 125 130 127 123 126 132 126 124 126 120 122 128 136
66 66 105 89 90 76 80 114 100 90 70 45 35 119 103 111 151 150 143 139 142 140 140 140 135 133 132 132 126 128 131 132 128 122 119 115 124 131 123 121 125 128 134 139 132 130 135 141 147
28 37 81 106 90 75 115 97 60 76 39 43 59 129 118 108 140 142 130 130 132 135 135 135 135 134 132 129 128 128 131 135 126 122 118 119 124 123 120 121 122 129 135 140 144 144 146 150 170
15 28 101 104 107 79 113 97 56 146 66 52 24 101 116 115 117 130 116 112 118 128 128 131 132 130 130 126 126 125 127 129 127 121 118 120 125 121 122 125 130 134 138 153 149 154 161 165 182
44 21 35 103 107 112 103 132 119 101 54 57 21 30 123 123 120 100 97 100 114 120 124 126 128 130 130 129 128 124 120 122 119 118 121 122 118 118 124 133 141 153 166 176 168 175 179 189 190
23 9 31 127 91 107 118 102 117 45 93 66 135 328 152 150 126 124 117 105 115 101 127 132 133 134 133 136 126 123 123 121 118 117 115 122 112 157 182 186 187 184 191 208 203 200 201 206 213
349 29 16 172 127 121 119 135 151 100 349 18 4 212 159 160 153 139 156 144 122 141 151 144 142 141 133 134 139 138 134 128 124 118 94 86 44 278 246 241 244 227 226 227 229 223 223 219 225
333 354 14 31 144 152 125 211 181 208 286 192 140 154 163 166 175 173 168 178 188 175 165 159 160 151 145 161 170 162 159 164 161 158 140 112 69 57 280 245 250 246 247 254 257 245 240 235 228
327 360 22 78 120 59 210 135 227 279 229 321 356 167 172 171 174 179 187 201 172 182 178 168 177 175 169 184 211 201 212 225 243 215 96 113 86 72 48 37 268 280 269 274 270 253 253 243 241
315 342 9 44 260 58 154 71 170 352 263 299 21 150 182 176 180 192 200 175 165 165 181 196 187 176 212 234 231 76 205 217 218 173 168 233 147 81 74 25 353 311 304 290 278 269 264 220 250
267 343 347 178 71 332 104 93 102 323 171 150 355 170 178 181 190 191 173 156 133 102 159 174 167 156 147 137 143 110 117 144 178 165 184 323 87 65 25 1 325 300 293 282 318 327 290 282 239
356 7 342 173 161 222 89 129 291 220 161 16 342 176 172 180 183 205 214 200 113 49 70 54 170 135 147 120 105 104 115 130 125 117 267 349 65 93 39 359 346 297 267 271 287 307 317 311 291
345 306 23 174 174 110 249 70 110 131 110 356 324 174 167 183 187 209 217 211 285 307 317 11 23 309 74 41 60 20 5 36 51 101 94 118 57 22 22 11 352 338 321 295 278 263 274 293 315
326 48 32 226 264 182 219 116 133 166 267 321 293 193 175 186 196 201 215 220 243 265 305 326 355 313 351 333 5 25 14 11 35 86 84 53 18 338 327 344 356 0 324 281 257 266 259 274 286
279 33 5 336 268 224 201 148 173 190 212 277 265 217 189 185 203 210 218 228 239 258 267 338 318 329 254 217 227 44 47 29 34 50 45 35 350 336 331 322 330 325 321 277 274 271 277 283 295
285 221 49 339 335 245 186 125 254 209 222 219 269 265 253 204 198 208 224 239 238 246 255 291 323 305 253 219 175 132 98 40 10 21 17 2 348 339 328 318 320 304 291 274 309 276 306 336 332
280 279 243 19 212 214 101 333 112 290 237 225 223 250 261 256 208 218 228 241 234 242 250 266 296 332 200 211 166 137 74 30 12 7 5 1 344 339 323 310 301 299 284 271 249 262 263 202 303
289 314 214 57 146 196 359 331 200 181 275 226 223 225 251 248 227 215 229 244 234 231 242 256 276 11 189 176 166 132 79 25 1 355 2 351 355 336 323 309 299 279 249 257 243 260 260 358 326
282 256 221 132 107 43 37 243 211 197 214 223 217 227 231 245 264 208 198 232 242 222 212 188 356 6 248 172 171 151 357 346 338 352 349 350 354 346 342 344 320 187 190 193 216 214 35 316 286
302 303 143 222 181 137 67 259 224 218 237 237 233 227 230 231 247 256 230 230 244 186 176 163 102 40 285 201 209 250 320 318 338 339 342 351 351 347 356 23 49 141 169 201 232 239 243 251 270
310 317 123 170 302 206 348 312 120 342 329 324 228 232 225 233 232 263 278 193 82 199 158 143 140 159 245 232 244 281 309 312 330 331 341 348 343 336 352 11 35 102 199 240 263 265 270 277 285
305 289 272 276 256 240 290 315 344 14 1 78 200 216 226 235 226 241 239 225 250 205 177 173 140 86 248 242 263 307 320 310 311 323 333 331 329 327 328 332 345 346 307 297 289 277 274 279 287
271 271 272 295 358 244 284 284 286 312 334 135 205 212 221 240 233 218 209 210 230 221 160 145 142 70 319 265 277 299 313 318 310 317 324 322 330 320 325 311 330 346 339 333 310 295 295 298 298
255 251 235 228 185 254 208 248 309 333 352 333 175 206 231 228 235 228 203 197 232 243 234 268 168 246 297 289 294 303 308 306 303 311 309 322 319 315 324 319 336 342 330 319 313 311 305 301 298
268 254 251 273 112 135 220 265 284 242 150 205 215 222 224 231 219 202 202 212 224 252 237 271 294 272 281 293 295 305 307 303 297 302 310 310 304 314 324 331 348 343 336 332 320 309 301 298 293
213 254 249 274 150 235 300 275 256 295 236 223 174 185 234 218 223 221 202 221 231 249 237 246 262 260 276 290 303 306 303 296 292 296 299 297 312 344 359 358 349 344 336 334 327 313 305 300 299
227 232 235 256 230 160 155 248 302 226 326 217 254 246 199 232 235 216 205 215 253 251 252 251 263 268 275 289 299 297 290 283 286 284 287 304 342 10 13 4 356 347 344 341 332 322 316 317 306
296 297 238 230 240 211 200 206 192 175 160 149 165 158 179 211 224 217 229 246 239 236 243 249 267 266 267 280 289 275 277 287 278 272 290 321 350 357 359 360 357 352 344 338 331 328 323 322 308